Year,Month,Day,Hour,Minute,Value (Times are PST for temperature in C)
2009,05,27,00,00,10.20
2009,05,27,00,01,10.20
2009,05,27,00,02,10.10
2009,05,27,00,03,10.10
2009,05,27,00,04,10.10
2009,05,27,00,05,10.10
2009,05,27,00,06,10.00
2009,05,27,00,07,9.90
2009,05,27,00,08,9.90
2009,05,27,00,09,9.90
2009,05,27,00,10,9.80
2009,05,27,00,11,9.80
2009,05,27,00,12,9.70
2009,05,27,00,13,9.70
2009,05,27,00,14,9.70
2009,05,27,00,15,9.60
2009,05,27,00,16,9.60
2009,05,27,00,17,9.50
2009,05,27,00,18,9.50
2009,05,27,00,19,9.40
2009,05,27,00,20,9.50
2009,05,27,00,21,9.50
2009,05,27,00,22,9.60
2009,05,27,00,23,9.50
2009,05,27,00,24,9.50
2009,05,27,00,25,9.50
2009,05,27,00,26,9.40
2009,05,27,00,27,9.40
2009,05,27,00,28,9.30
2009,05,27,00,29,9.30
2009,05,27,00,30,9.20
2009,05,27,00,31,9.20
2009,05,27,00,32,9.20
2009,05,27,00,33,9.20
2009,05,27,00,34,9.20
2009,05,27,00,35,9.20
2009,05,27,00,36,9.20
2009,05,27,00,37,9.20
2009,05,27,00,38,9.20
2009,05,27,00,39,9.20
2009,05,27,00,40,9.10
2009,05,27,00,41,9.10
2009,05,27,00,42,9.10
2009,05,27,00,43,9.20
2009,05,27,00,44,9.20
2009,05,27,00,45,9.20
2009,05,27,00,46,9.20
2009,05,27,00,47,9.20
2009,05,27,00,48,9.20
2009,05,27,00,49,9.10
2009,05,27,00,50,9.10
2009,05,27,00,51,9.10
2009,05,27,00,52,9.00
2009,05,27,00,53,9.00
2009,05,27,00,54,9.00
2009,05,27,00,55,9.00
2009,05,27,00,56,9.00
2009,05,27,00,57,9.00
2009,05,27,00,58,9.00
2009,05,27,00,59,9.00
2009,05,27,01,00,9.00
2009,05,27,01,01,9.00
2009,05,27,01,02,9.00
2009,05,27,01,03,9.00
2009,05,27,01,04,9.00
2009,05,27,01,05,9.00
2009,05,27,01,06,8.90
2009,05,27,01,07,8.90
2009,05,27,01,08,8.90
2009,05,27,01,09,8.90
2009,05,27,01,10,8.90
2009,05,27,01,11,8.90
2009,05,27,01,12,8.90
2009,05,27,01,13,8.90
2009,05,27,01,14,8.90
2009,05,27,01,15,8.90
2009,05,27,01,16,8.90
2009,05,27,01,17,8.90
2009,05,27,01,18,8.90
2009,05,27,01,19,8.80
2009,05,27,01,20,8.80
2009,05,27,01,21,8.80
2009,05,27,01,22,8.70
2009,05,27,01,23,8.70
2009,05,27,01,24,8.70
2009,05,27,01,25,8.70
2009,05,27,01,26,8.70
2009,05,27,01,27,8.70
2009,05,27,01,28,8.70
2009,05,27,01,29,8.60
2009,05,27,01,30,8.50
2009,05,27,01,31,8.50
2009,05,27,01,32,8.40
2009,05,27,01,33,8.40
2009,05,27,01,34,8.40
2009,05,27,01,35,8.30
2009,05,27,01,36,8.30
2009,05,27,01,37,8.20
2009,05,27,01,38,8.20
2009,05,27,01,39,8.20
2009,05,27,01,40,8.20
2009,05,27,01,41,8.10
2009,05,27,01,42,8.10
2009,05,27,01,43,8.10
2009,05,27,01,44,8.10
2009,05,27,01,45,8.00
2009,05,27,01,46,8.00
2009,05,27,01,47,8.00
2009,05,27,01,48,8.00
2009,05,27,01,49,8.00
2009,05,27,01,50,8.00
2009,05,27,01,51,7.90
2009,05,27,01,52,7.90
2009,05,27,01,53,7.90
2009,05,27,01,54,7.90
2009,05,27,01,55,7.90
2009,05,27,01,56,7.90
2009,05,27,01,57,7.80
2009,05,27,01,58,7.80
2009,05,27,01,59,7.80
2009,05,27,02,00,7.80
2009,05,27,02,01,7.80
2009,05,27,02,02,7.80
2009,05,27,02,03,7.80
2009,05,27,02,04,7.80
2009,05,27,02,05,7.80
2009,05,27,02,06,7.80
2009,05,27,02,07,7.80
2009,05,27,02,08,7.80
2009,05,27,02,09,7.70
2009,05,27,02,10,7.70
2009,05,27,02,11,7.70
2009,05,27,02,12,7.70
2009,05,27,02,13,7.70
2009,05,27,02,14,7.70
2009,05,27,02,15,7.70
2009,05,27,02,16,7.70
2009,05,27,02,17,7.70
2009,05,27,02,18,7.70
2009,05,27,02,19,7.70
2009,05,27,02,20,7.70
2009,05,27,02,21,7.70
2009,05,27,02,22,7.70
2009,05,27,02,23,7.70
2009,05,27,02,24,7.70
2009,05,27,02,25,7.70
2009,05,27,02,26,7.70
2009,05,27,02,27,7.70
2009,05,27,02,28,7.80
2009,05,27,02,29,7.80
2009,05,27,02,30,7.80
2009,05,27,02,31,7.80
2009,05,27,02,32,7.80
2009,05,27,02,33,7.80
2009,05,27,02,34,7.80
2009,05,27,02,35,7.80
2009,05,27,02,36,7.80
2009,05,27,02,37,7.80
2009,05,27,02,38,7.80
2009,05,27,02,39,7.80
2009,05,27,02,40,7.70
2009,05,27,02,41,7.70
2009,05,27,02,42,7.70
2009,05,27,02,43,7.60
2009,05,27,02,44,7.60
2009,05,27,02,45,7.60
2009,05,27,02,46,7.60
2009,05,27,02,47,7.50
2009,05,27,02,48,7.50
2009,05,27,02,49,7.50
2009,05,27,02,50,7.50
2009,05,27,02,51,7.50
2009,05,27,02,52,7.50
2009,05,27,02,53,7.50
2009,05,27,02,54,7.50
2009,05,27,02,55,7.50
2009,05,27,02,56,7.40
2009,05,27,02,57,7.40
2009,05,27,02,58,7.40
2009,05,27,02,59,7.40
2009,05,27,03,00,7.30
2009,05,27,03,01,7.30
2009,05,27,03,02,7.30
2009,05,27,03,03,7.30
2009,05,27,03,04,7.30
2009,05,27,03,05,7.30
2009,05,27,03,06,7.30
2009,05,27,03,07,7.30
2009,05,27,03,08,7.30
2009,05,27,03,09,7.30
2009,05,27,03,10,7.30
2009,05,27,03,11,7.20
2009,05,27,03,12,7.20
2009,05,27,03,13,7.20
2009,05,27,03,14,7.20
2009,05,27,03,15,7.20
2009,05,27,03,16,7.20
2009,05,27,03,17,7.20
2009,05,27,03,18,7.20
2009,05,27,03,19,7.20
2009,05,27,03,20,7.20
2009,05,27,03,21,7.10
2009,05,27,03,22,7.20
2009,05,27,03,23,7.10
2009,05,27,03,24,7.10
2009,05,27,03,25,7.10
2009,05,27,03,26,7.10
2009,05,27,03,27,7.10
2009,05,27,03,28,7.00
2009,05,27,03,29,7.00
2009,05,27,03,30,6.90
2009,05,27,03,31,6.80
2009,05,27,03,32,6.80
2009,05,27,03,33,6.80
2009,05,27,03,34,6.80
2009,05,27,03,35,6.70
2009,05,27,03,36,6.70
2009,05,27,03,37,6.60
2009,05,27,03,38,6.60
2009,05,27,03,39,6.60
2009,05,27,03,40,6.60
2009,05,27,03,41,6.50
2009,05,27,03,42,6.40
2009,05,27,03,43,6.40
2009,05,27,03,44,6.40
2009,05,27,03,45,6.40
2009,05,27,03,46,6.40
2009,05,27,03,47,6.40
2009,05,27,03,48,6.40
2009,05,27,03,49,6.40
2009,05,27,03,50,6.40
2009,05,27,03,51,6.40
2009,05,27,03,52,6.40
2009,05,27,03,53,6.30
2009,05,27,03,54,6.30
2009,05,27,03,55,6.30
2009,05,27,03,56,6.30
2009,05,27,03,57,6.30
2009,05,27,03,58,6.20
2009,05,27,03,59,6.20
2009,05,27,04,00,6.20
2009,05,27,04,01,6.20
2009,05,27,04,02,6.20
2009,05,27,04,03,6.20
2009,05,27,04,04,6.20
2009,05,27,04,05,6.20
2009,05,27,04,06,6.10
2009,05,27,04,07,6.10
2009,05,27,04,08,6.10
2009,05,27,04,09,6.10
2009,05,27,04,10,6.10
2009,05,27,04,11,6.10
2009,05,27,04,12,6.10
2009,05,27,04,13,6.10
2009,05,27,04,14,6.10
2009,05,27,04,15,6.10
2009,05,27,04,16,6.10
2009,05,27,04,17,6.10
2009,05,27,04,18,6.10
2009,05,27,04,19,6.10
2009,05,27,04,20,6.00
2009,05,27,04,21,6.00
2009,05,27,04,22,6.00
2009,05,27,04,23,6.00
2009,05,27,04,24,6.00
2009,05,27,04,25,6.00
2009,05,27,04,26,5.90
2009,05,27,04,27,5.90
2009,05,27,04,28,5.90
2009,05,27,04,29,5.90
2009,05,27,04,30,5.80
2009,05,27,04,31,5.80
2009,05,27,04,32,5.80
2009,05,27,04,33,5.80
2009,05,27,04,34,5.80
2009,05,27,04,35,5.80
2009,05,27,04,36,5.80
2009,05,27,04,37,5.70
2009,05,27,04,38,5.70
2009,05,27,04,39,5.70
2009,05,27,04,40,5.70
2009,05,27,04,41,5.70
2009,05,27,04,42,5.70
2009,05,27,04,43,5.70
2009,05,27,04,44,5.60
2009,05,27,04,45,5.60
2009,05,27,04,46,5.60
2009,05,27,04,47,5.60
2009,05,27,04,48,5.60
2009,05,27,04,49,5.60
2009,05,27,04,50,5.50
2009,05,27,04,51,5.50
2009,05,27,04,52,5.50
2009,05,27,04,53,5.50
2009,05,27,04,54,5.40
2009,05,27,04,55,5.40
2009,05,27,04,56,5.40
2009,05,27,04,57,5.40
2009,05,27,04,58,5.40
2009,05,27,04,59,5.40
2009,05,27,05,00,5.30
2009,05,27,05,01,5.30
2009,05,27,05,02,5.30
2009,05,27,05,03,5.30
2009,05,27,05,04,5.30
2009,05,27,05,05,5.30
2009,05,27,05,06,5.30
2009,05,27,05,07,5.30
2009,05,27,05,08,5.30
2009,05,27,05,09,5.30
2009,05,27,05,10,5.30
2009,05,27,05,11,5.30
2009,05,27,05,12,5.30
2009,05,27,05,13,5.30
2009,05,27,05,14,5.20
2009,05,27,05,15,5.20
2009,05,27,05,16,5.20
2009,05,27,05,17,5.20
2009,05,27,05,18,5.10
2009,05,27,05,19,5.10
2009,05,27,05,20,5.10
2009,05,27,05,21,5.10
2009,05,27,05,22,5.10
2009,05,27,05,23,5.10
2009,05,27,05,24,5.10
2009,05,27,05,25,5.10
2009,05,27,05,26,5.10
2009,05,27,05,27,5.10
2009,05,27,05,28,5.10
2009,05,27,05,29,5.10
2009,05,27,05,30,5.10
2009,05,27,05,31,5.00
2009,05,27,05,32,4.90
2009,05,27,05,33,4.90
2009,05,27,05,34,4.90
2009,05,27,05,35,4.90
2009,05,27,05,36,4.90
2009,05,27,05,37,4.90
2009,05,27,05,38,4.90
2009,05,27,05,39,4.90
2009,05,27,05,40,4.90
2009,05,27,05,41,4.90
2009,05,27,05,42,5.00
2009,05,27,05,43,5.10
2009,05,27,05,44,5.10
2009,05,27,05,45,5.10
2009,05,27,05,46,5.10
2009,05,27,05,47,5.10
2009,05,27,05,48,5.10
2009,05,27,05,49,5.10
2009,05,27,05,50,5.10
2009,05,27,05,51,5.10
2009,05,27,05,52,5.10
2009,05,27,05,53,5.10
2009,05,27,05,54,5.10
2009,05,27,05,55,5.10
2009,05,27,05,56,5.10
2009,05,27,05,57,5.10
2009,05,27,05,58,5.10
2009,05,27,05,59,5.10
2009,05,27,06,00,5.10
2009,05,27,06,01,5.20
2009,05,27,06,02,5.20
2009,05,27,06,03,5.30
2009,05,27,06,04,5.30
2009,05,27,06,05,5.30
2009,05,27,06,06,5.30
2009,05,27,06,07,5.40
2009,05,27,06,08,5.50
2009,05,27,06,09,5.60
2009,05,27,06,10,5.60
2009,05,27,06,11,5.70
2009,05,27,06,12,5.80
2009,05,27,06,13,5.80
2009,05,27,06,14,5.90
2009,05,27,06,15,6.00
2009,05,27,06,16,6.00
2009,05,27,06,17,6.00
2009,05,27,06,18,6.10
2009,05,27,06,19,6.20
2009,05,27,06,20,6.30
2009,05,27,06,21,6.40
2009,05,27,06,22,6.40
2009,05,27,06,23,6.50
2009,05,27,06,24,6.60
2009,05,27,06,25,6.70
2009,05,27,06,26,6.70
2009,05,27,06,27,6.70
2009,05,27,06,28,6.80
2009,05,27,06,29,6.80
2009,05,27,06,30,6.90
2009,05,27,06,31,7.00
2009,05,27,06,32,7.10
2009,05,27,06,33,7.20
2009,05,27,06,34,7.30
2009,05,27,06,35,7.30
2009,05,27,06,36,7.30
2009,05,27,06,37,7.30
2009,05,27,06,38,7.30
2009,05,27,06,39,7.30
2009,05,27,06,40,7.30
2009,05,27,06,41,7.40
2009,05,27,06,42,7.50
2009,05,27,06,43,7.60
2009,05,27,06,44,7.70
2009,05,27,06,45,7.70
2009,05,27,06,46,7.80
2009,05,27,06,47,7.90
2009,05,27,06,48,8.00
2009,05,27,06,49,8.10
2009,05,27,06,50,8.20
2009,05,27,06,51,8.30
2009,05,27,06,52,8.40
2009,05,27,06,53,8.50
2009,05,27,06,54,8.50
2009,05,27,06,55,8.60
2009,05,27,06,56,8.70
2009,05,27,06,57,8.70
2009,05,27,06,58,8.70
2009,05,27,06,59,8.70
2009,05,27,07,00,8.70
2009,05,27,07,01,8.80
2009,05,27,07,02,8.90
2009,05,27,07,03,8.90
2009,05,27,07,04,9.00
2009,05,27,07,05,9.00
2009,05,27,07,06,9.10
2009,05,27,07,07,9.10
2009,05,27,07,08,9.20
2009,05,27,07,09,9.20
2009,05,27,07,10,9.20
2009,05,27,07,11,9.30
2009,05,27,07,12,9.30
2009,05,27,07,13,9.40
2009,05,27,07,14,9.40
2009,05,27,07,15,9.50
2009,05,27,07,16,9.60
2009,05,27,07,17,9.70
2009,05,27,07,18,9.70
2009,05,27,07,19,9.80
2009,05,27,07,20,9.90
2009,05,27,07,21,9.90
2009,05,27,07,22,9.90
2009,05,27,07,23,10.10
2009,05,27,07,24,10.10
2009,05,27,07,25,10.10
2009,05,27,07,26,10.10
2009,05,27,07,27,10.10
2009,05,27,07,28,10.00
2009,05,27,07,29,9.90
2009,05,27,07,30,9.90
2009,05,27,07,31,10.00
2009,05,27,07,32,10.10
2009,05,27,07,33,10.10
2009,05,27,07,34,10.10
2009,05,27,07,35,10.20
2009,05,27,07,36,10.40
2009,05,27,07,37,10.40
2009,05,27,07,38,10.50
2009,05,27,07,39,10.60
2009,05,27,07,40,10.60
2009,05,27,07,41,10.60
2009,05,27,07,42,10.70
2009,05,27,07,43,10.70
2009,05,27,07,44,10.70
2009,05,27,07,45,10.70
2009,05,27,07,46,10.70
2009,05,27,07,47,10.70
2009,05,27,07,48,10.70
2009,05,27,07,49,10.70
2009,05,27,07,50,10.80
2009,05,27,07,51,10.80
2009,05,27,07,52,10.80
2009,05,27,07,53,10.80
2009,05,27,07,54,10.80
2009,05,27,07,55,10.90
2009,05,27,07,56,10.90
2009,05,27,07,57,10.90
2009,05,27,07,58,11.10
2009,05,27,07,59,11.10
2009,05,27,08,00,11.20
2009,05,27,08,01,11.20
2009,05,27,08,02,11.20
2009,05,27,08,03,11.30
2009,05,27,08,04,11.30
2009,05,27,08,05,11.30
2009,05,27,08,06,11.30
2009,05,27,08,07,11.30
2009,05,27,08,08,11.30
2009,05,27,08,09,11.30
2009,05,27,08,10,11.40
2009,05,27,08,11,11.50
2009,05,27,08,12,11.60
2009,05,27,08,13,11.70
2009,05,27,08,14,11.80
2009,05,27,08,15,12.00
2009,05,27,08,16,12.10
2009,05,27,08,17,12.20
2009,05,27,08,18,12.30
2009,05,27,08,19,12.30
2009,05,27,08,20,12.30
2009,05,27,08,21,12.40
2009,05,27,08,22,12.50
2009,05,27,08,23,12.60
2009,05,27,08,24,12.60
2009,05,27,08,25,12.70
2009,05,27,08,26,12.80
2009,05,27,08,27,12.90
2009,05,27,08,28,12.90
2009,05,27,08,29,12.90
2009,05,27,08,30,12.80
2009,05,27,08,31,12.80
2009,05,27,08,32,12.80
2009,05,27,08,33,12.80
2009,05,27,08,34,12.80
2009,05,27,08,35,12.80
2009,05,27,08,36,12.80
2009,05,27,08,37,12.80
2009,05,27,08,38,12.80
2009,05,27,08,39,12.90
2009,05,27,08,40,13.00
2009,05,27,08,41,13.10
2009,05,27,08,42,13.10
2009,05,27,08,43,13.20
2009,05,27,08,44,13.30
2009,05,27,08,45,13.30
2009,05,27,08,46,13.30
2009,05,27,08,47,13.30
2009,05,27,08,48,13.30
2009,05,27,08,49,13.30
2009,05,27,08,50,13.30
2009,05,27,08,51,13.40
2009,05,27,08,52,13.50
2009,05,27,08,53,13.50
2009,05,27,08,54,13.40
2009,05,27,08,55,13.40
2009,05,27,08,56,13.40
2009,05,27,08,57,13.40
2009,05,27,08,58,13.40
2009,05,27,08,59,13.40
2009,05,27,09,00,13.50
2009,05,27,09,01,13.50
2009,05,27,09,02,13.50
2009,05,27,09,03,13.50
2009,05,27,09,04,13.60
2009,05,27,09,05,13.60
2009,05,27,09,06,13.60
2009,05,27,09,07,13.70
2009,05,27,09,08,13.70
2009,05,27,09,09,13.80
2009,05,27,09,10,13.90
2009,05,27,09,11,14.00
2009,05,27,09,12,14.00
2009,05,27,09,13,14.10
2009,05,27,09,14,14.20
2009,05,27,09,15,14.30
2009,05,27,09,16,14.30
2009,05,27,09,17,14.30
2009,05,27,09,18,14.40
2009,05,27,09,19,14.40
2009,05,27,09,20,14.40
2009,05,27,09,21,14.30
2009,05,27,09,22,14.20
2009,05,27,09,23,14.20
2009,05,27,09,24,14.10
2009,05,27,09,25,14.10
2009,05,27,09,26,14.00
2009,05,27,09,27,14.00
2009,05,27,09,28,14.00
2009,05,27,09,29,14.00
2009,05,27,09,30,14.00
2009,05,27,09,31,14.00
2009,05,27,09,32,14.00
2009,05,27,09,33,14.00
2009,05,27,09,34,14.00
2009,05,27,09,35,14.00
2009,05,27,09,36,14.10
2009,05,27,09,37,14.10
2009,05,27,09,38,14.10
2009,05,27,09,39,14.00
2009,05,27,09,40,14.10
2009,05,27,09,41,14.10
2009,05,27,09,42,14.10
2009,05,27,09,43,14.10
2009,05,27,09,44,14.10
2009,05,27,09,45,14.10
2009,05,27,09,46,14.20
2009,05,27,09,47,14.20
2009,05,27,09,48,14.30
2009,05,27,09,49,14.40
2009,05,27,09,50,14.50
2009,05,27,09,51,14.60
2009,05,27,09,52,14.70
2009,05,27,09,53,14.70
2009,05,27,09,54,14.70
2009,05,27,09,55,14.70
2009,05,27,09,56,14.70
2009,05,27,09,57,14.80
2009,05,27,09,58,14.80
2009,05,27,09,59,14.70
2009,05,27,10,00,14.60
2009,05,27,10,01,14.60
2009,05,27,10,02,14.70
2009,05,27,10,03,14.70
2009,05,27,10,04,14.80
2009,05,27,10,05,14.80
2009,05,27,10,06,14.70
2009,05,27,10,07,14.60
2009,05,27,10,08,14.60
2009,05,27,10,09,14.60
2009,05,27,10,10,14.50
2009,05,27,10,11,14.30
2009,05,27,10,12,14.30
2009,05,27,10,13,14.40
2009,05,27,10,14,14.50
2009,05,27,10,15,14.50
2009,05,27,10,16,14.60
2009,05,27,10,17,14.70
2009,05,27,10,18,14.80
2009,05,27,10,19,14.80
2009,05,27,10,20,14.90
2009,05,27,10,21,14.90
2009,05,27,10,22,14.90
2009,05,27,10,23,14.90
2009,05,27,10,24,14.90
2009,05,27,10,25,14.80
2009,05,27,10,26,14.90
2009,05,27,10,27,15.00
2009,05,27,10,28,15.00
2009,05,27,10,29,15.10
2009,05,27,10,30,15.10
2009,05,27,10,31,15.20
2009,05,27,10,32,15.30
2009,05,27,10,33,15.40
2009,05,27,10,34,15.40
2009,05,27,10,35,15.40
2009,05,27,10,36,15.40
2009,05,27,10,37,15.30
2009,05,27,10,38,15.30
2009,05,27,10,39,15.30
2009,05,27,10,40,15.20
2009,05,27,10,41,15.10
2009,05,27,10,42,15.00
2009,05,27,10,43,15.10
2009,05,27,10,44,15.10
2009,05,27,10,45,15.20
2009,05,27,10,46,15.20
2009,05,27,10,47,15.30
2009,05,27,10,48,15.30
2009,05,27,10,49,15.30
2009,05,27,10,50,15.20
2009,05,27,10,51,14.90
2009,05,27,10,52,14.90
2009,05,27,10,53,14.90
2009,05,27,10,54,14.80
2009,05,27,10,55,14.80
2009,05,27,10,56,14.70
2009,05,27,10,57,14.80
2009,05,27,10,58,14.90
2009,05,27,10,59,15.00
2009,05,27,11,00,15.00
2009,05,27,11,01,15.00
2009,05,27,11,02,15.00
2009,05,27,11,03,15.10
2009,05,27,11,04,15.10
2009,05,27,11,05,15.20
2009,05,27,11,06,15.30
2009,05,27,11,07,15.50
2009,05,27,11,08,15.50
2009,05,27,11,09,15.60
2009,05,27,11,10,15.50
2009,05,27,11,11,15.30
2009,05,27,11,12,15.30
2009,05,27,11,13,15.20
2009,05,27,11,14,15.00
2009,05,27,11,15,14.80
2009,05,27,11,16,14.60
2009,05,27,11,17,14.70
2009,05,27,11,18,14.70
2009,05,27,11,19,14.60
2009,05,27,11,20,14.60
2009,05,27,11,21,14.60
2009,05,27,11,22,14.70
2009,05,27,11,23,14.90
2009,05,27,11,24,15.00
2009,05,27,11,25,15.10
2009,05,27,11,26,15.10
2009,05,27,11,27,15.10
2009,05,27,11,28,15.20
2009,05,27,11,29,15.30
2009,05,27,11,30,15.40
2009,05,27,11,31,15.40
2009,05,27,11,32,15.40
2009,05,27,11,33,15.50
2009,05,27,11,34,15.60
2009,05,27,11,35,15.50
2009,05,27,11,36,15.50
2009,05,27,11,37,15.40
2009,05,27,11,38,15.30
2009,05,27,11,39,15.30
2009,05,27,11,40,15.30
2009,05,27,11,41,15.30
2009,05,27,11,42,15.30
2009,05,27,11,43,15.10
2009,05,27,11,44,15.00
2009,05,27,11,45,14.90
2009,05,27,11,46,14.80
2009,05,27,11,47,14.70
2009,05,27,11,48,14.80
2009,05,27,11,49,14.80
2009,05,27,11,50,14.80
2009,05,27,11,51,14.90
2009,05,27,11,52,14.90
2009,05,27,11,53,15.00
2009,05,27,11,54,15.00
2009,05,27,11,55,15.10
2009,05,27,11,56,15.10
2009,05,27,11,57,15.30
2009,05,27,11,58,15.30
2009,05,27,11,59,15.30
2009,05,27,12,00,15.30
2009,05,27,12,01,15.30
2009,05,27,12,02,15.30
2009,05,27,12,03,15.30
2009,05,27,12,04,15.30
2009,05,27,12,05,15.30
2009,05,27,12,06,15.40
2009,05,27,12,07,15.50
2009,05,27,12,08,15.60
2009,05,27,12,09,15.60
2009,05,27,12,10,15.60
2009,05,27,12,11,15.70
2009,05,27,12,12,15.80
2009,05,27,12,13,15.90
2009,05,27,12,14,16.10
2009,05,27,12,15,16.10
2009,05,27,12,16,16.00
2009,05,27,12,17,15.90
2009,05,27,12,18,15.80
2009,05,27,12,19,15.80
2009,05,27,12,20,15.80
2009,05,27,12,21,15.80
2009,05,27,12,22,15.80
2009,05,27,12,23,15.90
2009,05,27,12,24,15.90
2009,05,27,12,25,16.00
2009,05,27,12,26,16.10
2009,05,27,12,27,16.20
2009,05,27,12,28,16.30
2009,05,27,12,29,16.20
2009,05,27,12,30,16.10
2009,05,27,12,31,16.00
2009,05,27,12,32,15.90
2009,05,27,12,33,15.80
2009,05,27,12,34,15.80
2009,05,27,12,35,15.80
2009,05,27,12,36,15.80
2009,05,27,12,37,15.80
2009,05,27,12,38,15.90
2009,05,27,12,39,16.10
2009,05,27,12,40,16.20
2009,05,27,12,41,16.30
2009,05,27,12,42,16.40
2009,05,27,12,43,16.40
2009,05,27,12,44,16.50
2009,05,27,12,45,16.60
2009,05,27,12,46,16.50
2009,05,27,12,47,16.50
2009,05,27,12,48,16.60
2009,05,27,12,49,16.70
2009,05,27,12,50,16.70
2009,05,27,12,51,16.80
2009,05,27,12,52,16.80
2009,05,27,12,53,16.70
2009,05,27,12,54,16.60
2009,05,27,12,55,16.30
2009,05,27,12,56,16.00
2009,05,27,12,57,15.80
2009,05,27,12,58,15.80
2009,05,27,12,59,15.90
2009,05,27,13,00,16.10
2009,05,27,13,01,16.00
2009,05,27,13,02,15.90
2009,05,27,13,03,15.90
2009,05,27,13,04,15.80
2009,05,27,13,05,15.60
2009,05,27,13,06,15.50
2009,05,27,13,07,15.50
2009,05,27,13,08,15.60
2009,05,27,13,09,15.70
2009,05,27,13,10,15.70
2009,05,27,13,11,15.80
2009,05,27,13,12,16.00
2009,05,27,13,13,16.10
2009,05,27,13,14,16.10
2009,05,27,13,15,15.90
2009,05,27,13,16,15.70
2009,05,27,13,17,15.60
2009,05,27,13,18,15.60
2009,05,27,13,19,15.50
2009,05,27,13,20,15.60
2009,05,27,13,21,15.60
2009,05,27,13,22,15.70
2009,05,27,13,23,15.80
2009,05,27,13,24,15.80
2009,05,27,13,25,15.80
2009,05,27,13,26,15.80
2009,05,27,13,27,15.90
2009,05,27,13,28,16.10
2009,05,27,13,29,16.10
2009,05,27,13,30,16.20
2009,05,27,13,31,16.20
2009,05,27,13,32,16.20
2009,05,27,13,33,16.20
2009,05,27,13,34,16.30
2009,05,27,13,35,16.20
2009,05,27,13,36,16.20
2009,05,27,13,37,16.30
2009,05,27,13,38,16.40
2009,05,27,13,39,16.30
2009,05,27,13,40,16.30
2009,05,27,13,41,16.30
2009,05,27,13,42,16.30
2009,05,27,13,43,16.20
2009,05,27,13,44,16.10
2009,05,27,13,45,15.90
2009,05,27,13,46,15.80
2009,05,27,13,47,15.70
2009,05,27,13,48,15.50
2009,05,27,13,49,15.50
2009,05,27,13,50,15.50
2009,05,27,13,51,15.50
2009,05,27,13,52,15.50
2009,05,27,13,53,15.30
2009,05,27,13,54,15.40
2009,05,27,13,55,15.40
2009,05,27,13,56,15.40
2009,05,27,13,57,15.30
2009,05,27,13,58,15.30
2009,05,27,13,59,15.30
2009,05,27,14,00,15.30
2009,05,27,14,01,15.30
2009,05,27,14,02,15.20
2009,05,27,14,03,15.20
2009,05,27,14,04,15.10
2009,05,27,14,05,15.00
2009,05,27,14,06,14.90
2009,05,27,14,07,15.00
2009,05,27,14,08,15.10
2009,05,27,14,09,15.10
2009,05,27,14,10,15.10
2009,05,27,14,11,15.10
2009,05,27,14,12,15.10
2009,05,27,14,13,15.00
2009,05,27,14,14,15.00
2009,05,27,14,15,15.00
2009,05,27,14,16,15.10
2009,05,27,14,17,15.20
2009,05,27,14,18,15.30
2009,05,27,14,19,15.30
2009,05,27,14,20,15.40
2009,05,27,14,21,15.50
2009,05,27,14,22,15.60
2009,05,27,14,23,15.70
2009,05,27,14,24,15.80
2009,05,27,14,25,15.80
2009,05,27,14,26,15.80
2009,05,27,14,27,15.80
2009,05,27,14,28,15.80
2009,05,27,14,29,15.80
2009,05,27,14,30,15.80
2009,05,27,14,31,15.70
2009,05,27,14,32,15.60
2009,05,27,14,33,15.60
2009,05,27,14,34,15.60
2009,05,27,14,35,15.70
2009,05,27,14,36,15.80
2009,05,27,14,37,15.80
2009,05,27,14,38,15.80
2009,05,27,14,39,15.80
2009,05,27,14,40,15.80
2009,05,27,14,41,15.70
2009,05,27,14,42,15.60
2009,05,27,14,43,15.60
2009,05,27,14,44,15.60
2009,05,27,14,45,15.70
2009,05,27,14,46,15.70
2009,05,27,14,47,15.70
2009,05,27,14,48,15.70
2009,05,27,14,49,15.80
2009,05,27,14,50,15.80
2009,05,27,14,51,15.80
2009,05,27,14,52,15.80
2009,05,27,14,53,15.70
2009,05,27,14,54,15.60
2009,05,27,14,55,15.70
2009,05,27,14,56,15.60
2009,05,27,14,57,15.70
2009,05,27,14,58,15.70
2009,05,27,14,59,15.70
2009,05,27,15,00,15.70
2009,05,27,15,01,15.70
2009,05,27,15,02,15.60
2009,05,27,15,03,15.60
2009,05,27,15,04,15.60
2009,05,27,15,05,15.60
2009,05,27,15,06,15.60
2009,05,27,15,07,15.80
2009,05,27,15,08,15.80
2009,05,27,15,09,15.90
2009,05,27,15,10,15.90
2009,05,27,15,11,15.90
2009,05,27,15,12,15.90
2009,05,27,15,13,15.90
2009,05,27,15,14,15.90
2009,05,27,15,15,15.80
2009,05,27,15,16,15.80
2009,05,27,15,17,15.70
2009,05,27,15,18,15.70
2009,05,27,15,19,15.70
2009,05,27,15,20,15.80
2009,05,27,15,21,15.70
2009,05,27,15,22,15.70
2009,05,27,15,23,15.60
2009,05,27,15,24,15.60
2009,05,27,15,25,15.60
2009,05,27,15,26,15.60
2009,05,27,15,27,15.60
2009,05,27,15,28,15.70
2009,05,27,15,29,15.80
2009,05,27,15,30,15.80
2009,05,27,15,31,15.90
2009,05,27,15,32,15.90
2009,05,27,15,33,15.80
2009,05,27,15,34,15.80
2009,05,27,15,35,15.80
2009,05,27,15,36,15.80
2009,05,27,15,37,15.80
2009,05,27,15,38,15.80
2009,05,27,15,39,15.80
2009,05,27,15,40,15.90
2009,05,27,15,41,15.90
2009,05,27,15,42,16.00
2009,05,27,15,43,16.10
2009,05,27,15,44,16.10
2009,05,27,15,45,16.10
2009,05,27,15,46,16.00
2009,05,27,15,47,15.90
2009,05,27,15,48,15.80
2009,05,27,15,49,15.90
2009,05,27,15,50,15.90
2009,05,27,15,51,16.00
2009,05,27,15,52,16.00
2009,05,27,15,53,16.10
2009,05,27,15,54,16.10
2009,05,27,15,55,16.20
2009,05,27,15,56,16.20
2009,05,27,15,57,16.10
2009,05,27,15,58,16.10
2009,05,27,15,59,16.10
2009,05,27,16,00,16.10
2009,05,27,16,01,16.10
2009,05,27,16,02,16.10
2009,05,27,16,03,16.20
2009,05,27,16,04,16.30
2009,05,27,16,05,16.20
2009,05,27,16,06,16.10
2009,05,27,16,07,16.10
2009,05,27,16,08,16.00
2009,05,27,16,09,15.80
2009,05,27,16,10,15.80
2009,05,27,16,11,15.80
2009,05,27,16,12,15.80
2009,05,27,16,13,15.80
2009,05,27,16,14,15.70
2009,05,27,16,15,15.70
2009,05,27,16,16,15.70
2009,05,27,16,17,15.80
2009,05,27,16,18,15.80
2009,05,27,16,19,15.90
2009,05,27,16,20,16.00
2009,05,27,16,21,16.10
2009,05,27,16,22,16.20
2009,05,27,16,23,16.20
2009,05,27,16,24,16.20
2009,05,27,16,25,16.30
2009,05,27,16,26,16.30
2009,05,27,16,27,16.40
2009,05,27,16,28,16.30
2009,05,27,16,29,16.20
2009,05,27,16,30,16.30
2009,05,27,16,31,16.30
2009,05,27,16,32,16.30
2009,05,27,16,33,16.30
2009,05,27,16,34,16.30
2009,05,27,16,35,16.20
2009,05,27,16,36,16.20
2009,05,27,16,37,16.30
2009,05,27,16,38,16.30
2009,05,27,16,39,16.30
2009,05,27,16,40,16.30
2009,05,27,16,41,16.30
2009,05,27,16,42,16.30
2009,05,27,16,43,16.30
2009,05,27,16,44,16.30
2009,05,27,16,45,16.30
2009,05,27,16,46,16.30
2009,05,27,16,47,16.30
2009,05,27,16,48,16.40
2009,05,27,16,49,16.40
2009,05,27,16,50,16.40
2009,05,27,16,51,16.60
2009,05,27,16,52,16.70
2009,05,27,16,53,16.70
2009,05,27,16,54,16.80
2009,05,27,16,55,16.90
2009,05,27,16,56,17.00
2009,05,27,16,57,17.00
2009,05,27,16,58,16.90
2009,05,27,16,59,16.90
2009,05,27,17,00,16.80
2009,05,27,17,01,16.70
2009,05,27,17,02,16.70
2009,05,27,17,03,16.70
2009,05,27,17,04,16.80
2009,05,27,17,05,16.80
2009,05,27,17,06,16.80
2009,05,27,17,07,16.90
2009,05,27,17,08,16.90
2009,05,27,17,09,16.80
2009,05,27,17,10,16.90
2009,05,27,17,11,16.80
2009,05,27,17,12,16.80
2009,05,27,17,13,16.80
2009,05,27,17,14,16.80
2009,05,27,17,15,16.70
2009,05,27,17,16,16.60
2009,05,27,17,17,16.50
2009,05,27,17,18,16.60
2009,05,27,17,19,16.60
2009,05,27,17,20,16.70
2009,05,27,17,21,16.70
2009,05,27,17,22,16.70
2009,05,27,17,23,16.70
2009,05,27,17,24,16.70
2009,05,27,17,25,16.70
2009,05,27,17,26,16.70
2009,05,27,17,27,16.80
2009,05,27,17,28,16.80
2009,05,27,17,29,16.80
2009,05,27,17,30,16.80
2009,05,27,17,31,16.90
2009,05,27,17,32,16.90
2009,05,27,17,33,17.00
2009,05,27,17,34,17.00
2009,05,27,17,35,17.00
2009,05,27,17,36,17.10
2009,05,27,17,37,17.10
2009,05,27,17,38,17.10